Regional Weather Roundup
Issued by NWS

Home | Current Version | Previous Version | Text Only | Print | Product List | Glossary Off
Versions: 1 2 3 4 5 6 7 8 9 10 11 12 13 14 15 16 17 18 19 20 21 22 23 24 25 26 27 28 29 30 31 32 33 34 35 36 37 38 39 40 41 42 43 44 45 46 47 48 49 50

000
ASUS43 KDMX 021807
RWRIA

WEATHER ROUNDUP FOR IOWA
NATIONAL WEATHER SERVICE DES MOINES IA
100 PM CDT THU JUL 02 2015

NOTE: "FAIR" INDICATES FEW OR NO CLOUDS BELOW 12,000 FEET WITH NO
SIGNIFICANT WEATHER AND/OR OBSTRUCTIONS TO VISIBILITY.

* - THESE STATIONS ARE NOT NWS STATIONS...THUS NOT UNDER NWS
QUALITY CONTROL.  THEY ALSO DO NOT REPORT WEATHER SUCH
AS PRECIPITATION OR FOG.

IAZ001>003-012>014-020>022-031>034-043>046-021900-
   NORTHWEST IOWA

CITY           SKY/WX    TMP DP  RH WIND       PRES   REMARKS
CARROLL *      MOSUNNY   66  59  77 E10       30.00S
CHEROKEE *     CLOUDY    67  58  73 SE7       30.00R
DENISON *      MOSUNNY   66  61  82 SE7       29.97F
LE MARS *      MOSUNNY   64  59  82 SE6       30.00S
ORANGE CITY *  SUNNY     66  57  72 SE6       30.00S
SHELDON *      SUNNY     68  57  68 E9        29.99F
SIOUX CITY     CLOUDY    68  60  75 E8        29.98F
6HR MIN TEMP:  60; 6HR MAX TEMP:  68; 6HR PCP:  0.01;

SPENCER        CLOUDY    69  53  56 SE8       30.01F
6HR MIN TEMP:  57; 6HR MAX TEMP:  70;

STORM LAKE *   SUNNY     66  55  68 SE8       30.01S
$$

IAZ055>058-069>071-079>083-090>094-021900-
   SOUTHWEST IOWA

CITY           SKY/WX    TMP DP  RH WIND       PRES   REMARKS
ATLANTIC *     PTSUNNY   68  63  83 VRB7G14   29.99R
AUDUBON *      MOSUNNY   68  61  77 SE5       30.01R
CLARINDA *     DRIZZLE   70  64  83 E6        29.98S
COUNCIL BLFS * CLOUDY    64  64 100 E8G14     29.97F FOG
CRESTON *      MOSUNNY   68  61  77 E10G17    29.97F
HARLAN  *      PTSUNNY   68  66  94 E9        30.02S
LAMONI         CLOUDY    70  62  76 E7        29.97S
6HR MIN TEMP:  63; 6HR MAX TEMP:  71;

RED OAK *      LGT RAIN  68  64  88 E6        29.97F
SHENANDOAH *   LGT RAIN  68  66  94 NE8       29.96F
$$

IAZ047>049-059>061-072>074-084-021900-
   CENTRAL IOWA

CITY           SKY/WX    TMP DP  RH WIND       PRES   REMARKS
AMES           CLOUDY    69  53  56 SE6       30.00S
6HR MIN TEMP:  56; 6HR MAX TEMP:  69;

ANKENY *       SUNNY     68  55  64 E7G13     29.99S
CHARITON *     SUNNY     68  57  68 E8        29.98F
DES MOINES     CLOUDY    70  54  56 SE8       29.99R
6HR MIN TEMP:  59; 6HR MAX TEMP:  71;

GRINNELL*      PTSUNNY   69  50  51 E14       30.00F
KNOXVILLE *    SUNNY     68  50  52 E9        29.98S
MARSHALLTOWN   PTSUNNY   69  51  52 E14       30.00F
6HR MIN TEMP:  57; 6HR MAX TEMP:  69;

PELLA *        CLOUDY    70  53  56 SE10      30.00S
PERRY *          N/A     68  57  68 E12       30.00S
$$

IAZ004>006-015-016-023>025-035-036-021900-
   NORTH CENTRAL IOWA

CITY           SKY/WX    TMP DP  RH WIND       PRES   REMARKS
ALGONA *       SUNNY     70  54  56 SE7G14    30.01F
CLARION *      SUNNY     70  55  60 SE9G16    30.01F
ESTHERVILLE    PTSUNNY   68  50  52 E10       30.01F
6HR MIN TEMP:  53; 6HR MAX TEMP:  68;

FORT DODGE *   PTSUNNY   68  55  64 E12       30.01F
MASON CITY     MOSUNNY   71  53  52 SE8       30.03F
6HR MIN TEMP:  52; 6HR MAX TEMP:  71;

FOREST CITY *  SUNNY     70  52  52 SE9       30.02F
IOWA FALLS *     N/A     70  52  52 E9        30.03S
$$

IAZ007>011-017>019-026>030-037>042-050>054-066-021900-
   NORTHEAST IOWA

CITY           SKY/WX    TMP DP  RH WIND       PRES   REMARKS
CEDAR RAPIDS   MOSUNNY   71  53  52 E10G22    29.99F
6HR MIN TEMP:  57; 6HR MAX TEMP:  71;

CHARLES CITY * SUNNY     70  55  60 SE10      30.02F
CLINTON *      PTSUNNY   68  52  56 NE10      30.03R
DECORAH *        N/A    N/A N/A N/A MISG        N/A
DUBUQUE        PTSUNNY   67  50  54 E12G21    30.01F
6HR MIN TEMP:  52; 6HR MAX TEMP:  68;

MONTICELLO *   SUNNY     70 -35   1 NE10G18   30.00F
OELWEIN *        N/A     68  55  64 E9        30.03S
WATERLOO       PTSUNNY   73  54  51 E12       30.00F
6HR MIN TEMP:  55; 6HR MAX TEMP:  73;

$$

IAZ064-065-067-068-078-021900-
   EAST CENTRAL IOWA

CITY           SKY/WX    TMP DP  RH WIND       PRES   REMARKS
DAVENPORT      MOSUNNY   71  52  50 E13       30.00S
6HR MIN TEMP:  55; 6HR MAX TEMP:  71;

IOWA CITY      MOSUNNY   71  50  47 E9        30.00F
6HR MIN TEMP:  58; 6HR MAX TEMP:  71;

MT. PLEASANT * CLOUDY    72  51  48 NE10      29.98F
MUSCATINE *    SUNNY     72  52  49 NE10G20   29.99S
QUAD CITIES    PTSUNNY   70  54  56 NE13      29.99S
6HR MIN TEMP:  57; 6HR MAX TEMP:  71;

$$

IAZ062-063-075>077-085>089-095>099-021900-
   SOUTHEAST IOWA

CITY           SKY/WX    TMP DP  RH WIND       PRES   REMARKS
BURLINGTON     CLOUDY    69  58  67 NE7G16    29.97F
6HR MIN TEMP:  59; 6HR MAX TEMP:  69;

FAIRFIELD *    SUNNY     68  52  56 E10       29.98F
FORT MADISON * SUNNY     66  57  72 NE7       29.98S
KEOKUK *       SUNNY     68  59  73 NE8       29.97R
OSKALOOSA *      N/A     68  48  47 E12       29.99S
CENTERVILLE *  SUNNY     70  57  64 NE8       29.98F
OTTUMWA        CLOUDY    68  50  52 NE10      29.97S
6HR MIN TEMP:  59; 6HR MAX TEMP:  68;

WASHINGTON *   SUNNY     70  52  52 NE13      30.00F
$$

ABBREVIATIONS USED IN REMARKS
   TC - TEMPERATURES IN CELSIUS
  WCI - WIND CHILL INDEX
   HX - HEAT INDEX
  VSB - VISIBILITY
$$




USA.gov is the U.S. government's official web portal to all federal, state and local government web resources and services.